This is the latest recevied weather packets stored in our database for station/object KC4JIR. If no packets are shown the sender has not sent any weather packets the latest 1 day(s).
| Time | Temp. | Humidity | Pressure | Rain* | Wind** | Luminosity | Snow |
|---|---|---|---|---|---|---|---|
| 1778025708 | 25° C | 48% | 1011.4 hPa | 0 mm | 0 m/s | 6 W/m² | - |
| 1778025406 | 25° C | 45% | 1011.4 hPa | 0 mm | 0 m/s | 9 W/m² | - |
| 1778025103 | 25.56° C | 46% | 1011.4 hPa | 0 mm | 0 m/s | 13 W/m² | - |
| 1778024800 | 25.56° C | 43% | 1011.2 hPa | 0 mm | 0 m/s | 15 W/m² | - |
| 1778024497 | 26.11° C | 42% | 1011.3 hPa | 0 mm | 0.45 m/s, 75° | 17 W/m² | - |
| 1778024194 | 26.11° C | 43% | 1011.2 hPa | 0 mm | 0.89 m/s, 249° | 18 W/m² | - |
| 1778023892 | 26.11° C | 43% | 1011.1 hPa | 0 mm | 0.89 m/s, 233° | 21 W/m² | - |
| 1778023589 | 26.67° C | 43% | 1011.3 hPa | 0 mm | 0.45 m/s, 150° | 23 W/m² | - |
| 1778023286 | 26.67° C | 41% | 1011.2 hPa | 0 mm | 1.34 m/s, 234° | 26 W/m² | - |
| 1778022983 | 26.67° C | 43% | 1011 hPa | 0 mm | 0.45 m/s, 31° | 32 W/m² | - |
| 1778022682 | 26.67° C | 44% | 1011.1 hPa | 0 mm | 0.45 m/s, 222° | 28 W/m² | - |
| 1778022380 | 26.67° C | 46% | 1011 hPa | 0 mm | 0 m/s | 32 W/m² | - |
| 1778022075 | 27.22° C | 44% | 1011.1 hPa | 0 mm | 1.34 m/s, 153° | 35 W/m² | - |
| 1778021772 | 27.78° C | 43% | 1011.1 hPa | 0 mm | 0.45 m/s, 305° | 41 W/m² | - |
| 1778021468 | 28.33° C | 42% | 1011.1 hPa | 0 mm | 0.45 m/s, 279° | 91 W/m² | - |
| 1778021165 | 28.33° C | 42% | 1011 hPa | 0 mm | 1.34 m/s, 197° | 156 W/m² | - |
| 1778020862 | 28.33° C | 41% | 1010.9 hPa | 0 mm | 0.89 m/s, 211° | 156 W/m² | - |
| 1778020560 | 28.89° C | 42% | 1010.8 hPa | 0 mm | 0.45 m/s, 224° | 180 W/m² | - |
| 1778020256 | 28.33° C | 41% | 1011 hPa | 0 mm | 0 m/s | 194 W/m² | - |
| 1778019952 | 28.89° C | 42% | 1011.1 hPa | 0 mm | 0.89 m/s, 260° | 216 W/m² | - |
| 1778019648 | 28.89° C | 40% | 1011 hPa | 0 mm | 0 m/s | 221 W/m² | - |
| 1778019346 | 28.89° C | 41% | 1011.1 hPa | 0 mm | 0.45 m/s, 258° | 237 W/m² | - |
| 1778019042 | 29.44° C | 40% | 1011.3 hPa | 0 mm | 0 m/s | 224 W/m² | - |
| 1778018739 | 28.89° C | 40% | 1011.3 hPa | 0 mm | 0 m/s | 263 W/m² | - |
| 1778018437 | 29.44° C | 39% | 1011.4 hPa | 0 mm | 0.45 m/s, 94° | 291 W/m² | - |
* Rain latest hour (hover to see other rain measurements)
** Current wind speed in m/s (hover to see current wind gust speed)